Погода в Манаду

Мальдивы     5°45′59″N   73°24′54″E
темп.,
°C
ветер,
м/с
пор.,
м/с
влажн.,
%
обл.,
%
осадки,
мм/ч
давл.,
гПа
погр.,
м
10 августа, ср
ср1023:00+27зсз598484 0.1 1009812
02:00+27з6879100 0.4 1008789
05:00+27з468074 0.4 1008716
08:00+27з558243 0.0 1009607
11:00+27з458186 0.0 1009604
14:00+27з348015 0.1 1007586
17:00+28зсз457991 0.1 1007597
20:00+27з458391 0.0 1008440
11 августа, чт
чт1123:00+27зсз47835 0.1 1009608
02:00+27зсз578341 0.1 1007704
05:00+27зсз468355 1.2 1008576
08:00+27з4583100 1.1 1009534
11:00+27зюз3480100 1.4 1010575
14:00+28з3480100 0.0 1008634
17:00+28зсз347811 0.0 1008668
20:00+27зсз33815 0.8 1009263
12 августа, пт
пт1223:00+27зюз23805 0.8 1010404
02:00+27зюз338095 0.6 1009367
05:00+27зюз348048 0.6 1009478
08:00+27зюз4478100 0.2 1011497
11:00+27зюз347794 0.3 1010526
14:00+27з347639 0.0 1008605
17:00+28зсз447639 0.0 1008656
20:00+27зсз237969 0.0 1010622
13 августа, сб
сб1323:00+27зсз237980 0.0 1010521
02:00+27зсз3382100 0.5 1009450
05:00+27з4481100 0.8 1009533
08:00+27з348118 1.9 1010327
11:00+27з347845 2.3 1011486
14:00+27з447699 0.3 1008632
17:00+27з4476100 0.3 1008680
20:00+27з237798 0.1 1010511
14 августа, вс
вс1423:00+27зсз337894 0.1 1011579
02:00+27сз448050 0.0 1008663
05:00+27зсз348062 0.8 1009619
08:00+27зсз228015 0.6 1011407
11:00+27зсз227851 0.9 1011494
14:00+27сз4477100 0.0 1009671
17:00+27сз3376100 0.0 1009684
20:00+27сз3378100 0.0 1010657